TimeEST,TemperatureF,Dew PointF,Humidity,Sea Level PressureIn,VisibilityMPH,Wind Direction,Wind SpeedMPH,Gust SpeedMPH,PrecipitationIn,Events,Conditions,WindDirDegrees,DateUTC
12:33 AM,53.6,44.6,72,30.33,10.0,Calm,Calm,-,N/A,,Mostly Cloudy,0,2013-01-09 05:33:00
12:44 AM,53.6,44.6,72,30.33,10.0,Calm,Calm,-,N/A,,Mostly Cloudy,0,2013-01-09 05:44:00
12:52 AM,53.6,44.6,72,30.33,10.0,Calm,Calm,-,N/A,,Overcast,0,2013-01-09 05:52:00
12:55 AM,54.0,44.8,71,30.33,10.0,Calm,Calm,-,N/A,,Overcast,0,2013-01-09 05:55:00
1:24 AM,53.6,44.6,72,30.32,10.0,Calm,Calm,-,N/A,,Scattered Clouds,0,2013-01-09 06:24:00
1:29 AM,53.6,44.6,72,30.33,10.0,Calm,Calm,-,N/A,,Mostly Cloudy,0,2013-01-09 06:29:00
1:34 AM,53.6,44.6,72,30.33,10.0,North,3.5,-,N/A,,Mostly Cloudy,360,2013-01-09 06:34:00
1:55 AM,53.1,45.0,74,30.33,10.0,North,3.5,-,N/A,,Overcast,10,2013-01-09 06:55:00
2:55 AM,52.0,44.8,76,30.32,10.0,NNE,3.5,-,N/A,,Clear,30,2013-01-09 07:55:00
3:55 AM,49.8,43.9,80,30.32,10.0,Calm,Calm,-,N/A,,Partly Cloudy,0,2013-01-09 08:55:00
4:55 AM,48.7,43.9,83,30.32,10.0,North,4.6,-,N/A,,Partly Cloudy,350,2013-01-09 09:55:00
5:55 AM,46.9,43.0,86,30.33,10.0,North,3.5,-,N/A,,Partly Cloudy,350,2013-01-09 10:55:00
6:23 AM,44.6,42.8,93,30.34,10.0,NNE,3.5,-,N/A,,Mostly Cloudy,20,2013-01-09 11:23:00
6:55 AM,49.6,45.1,84,30.36,10.0,NNW,6.9,-,N/A,,Overcast,340,2013-01-09 11:55:00
7:55 AM,50.2,44.6,81,30.40,10.0,NNW,8.1,-,N/A,,Overcast,340,2013-01-09 12:55:00
8:28 AM,50.0,44.6,82,30.40,10.0,North,3.5,-,N/A,,Overcast,360,2013-01-09 13:28:00
8:42 AM,51.8,44.6,76,30.41,10.0,North,4.6,-,N/A,,Overcast,350,2013-01-09 13:42:00
8:55 AM,51.1,44.8,79,30.41,10.0,North,3.5,-,N/A,,Overcast,10,2013-01-09 13:55:00
9:03 AM,51.8,44.6,76,30.41,10.0,North,3.5,-,N/A,,Overcast,10,2013-01-09 14:03:00
9:55 AM,53.6,46.0,76,30.41,10.0,NNE,4.6,-,N/A,,Overcast,20,2013-01-09 14:55:00
10:16 AM,55.4,46.4,72,30.42,10.0,NNE,3.5,-,N/A,,Overcast,20,2013-01-09 15:16:00
10:44 AM,55.4,48.2,77,30.42,10.0,Calm,Calm,-,N/A,,Overcast,0,2013-01-09 15:44:00
10:55 AM,56.1,48.6,76,30.41,10.0,Calm,Calm,-,N/A,,Overcast,0,2013-01-09 15:55:00
11:12 AM,57.2,48.2,72,30.42,10.0,Calm,Calm,-,N/A,,Overcast,0,2013-01-09 16:12:00
11:55 AM,59.0,51.6,76,30.39,10.0,Variable,3.5,-,N/A,,Overcast,0,2013-01-09 16:55:00
12:55 PM,61.9,53.6,74,30.36,10.0,East,5.8,-,N/A,,Overcast,100,2013-01-09 17:55:00
1:55 PM,63.7,55.8,75,30.34,10.0,ESE,4.6,-,N/A,,Overcast,120,2013-01-09 18:55:00
2:55 PM,66.6,57.2,72,30.33,10.0,ENE,5.8,-,N/A,,Overcast,60,2013-01-09 19:55:00
3:31 PM,68.0,57.2,68,30.33,10.0,Variable,3.5,-,N/A,,Overcast,0,2013-01-09 20:31:00
3:52 PM,68.0,57.2,68,30.33,10.0,Variable,3.5,-,N/A,,Mostly Cloudy,0,2013-01-09 20:52:00
3:55 PM,68.0,57.2,68,30.33,10.0,NNE,5.8,-,N/A,,Mostly Cloudy,30,2013-01-09 20:55:00
4:55 PM,67.1,57.6,71,30.34,10.0,Calm,Calm,-,N/A,,Mostly Cloudy,0,2013-01-09 21:55:00
5:41 PM,66.2,57.2,73,30.35,10.0,Calm,Calm,-,N/A,,Overcast,0,2013-01-09 22:41:00
5:55 PM,64.8,57.0,76,30.35,10.0,Calm,Calm,-,N/A,,Overcast,0,2013-01-09 22:55:00
6:55 PM,61.3,56.5,84,30.35,10.0,Calm,Calm,-,N/A,,Mostly Cloudy,0,2013-01-09 23:55:00
7:55 PM,60.8,56.3,85,30.37,10.0,Calm,Calm,-,N/A,,Overcast,0,2013-01-10 00:55:00
8:03 PM,60.8,55.4,82,30.37,10.0,Calm,Calm,-,N/A,,Overcast,0,2013-01-10 01:03:00
8:55 PM,57.6,54.7,90,30.38,10.0,Calm,Calm,-,N/A,,Mostly Cloudy,0,2013-01-10 01:55:00
9:55 PM,57.7,54.9,90,30.39,10.0,Calm,Calm,-,N/A,,Overcast,0,2013-01-10 02:55:00
10:55 PM,57.6,54.9,91,30.39,10.0,Calm,Calm,-,N/A,,Mostly Cloudy,0,2013-01-10 03:55:00
11:55 PM,57.0,55.2,94,30.38,10.0,ESE,4.6,-,N/A,,Partly Cloudy,120,2013-01-10 04:55:00